Roseburg, OR

8:51 PM PST on November 18, 2019 (GMT -0800)
Roseburg Regional

Weather History for KRBG - September, 2019

Change the Weather History Date:

Saturday, September 14, 2019

  Actual Average Record
Temperature  
Mean Temperature 69 °F 66 °F  
Max Temperature 82 °F 79 °F 101 °F (1937)
Min Temperature 56 °F 52 °F 42 °F (1952)
Degree Days  
Heating Degree Days 0 2  
Month to date heating degree days 2 16  
Since 1 July heating degree days 7 37  
Cooling Degree Days 4 2  
Month to date cooling degree days 70 44  
Year to date cooling degree days 673 455  
Growing Degree Days 19 (Base 50)    
Moisture  
Dew Point 56 °F    
Average Humidity 69    
Maximum Humidity 93    
Minimum Humidity 45    
Precipitation  
Precipitation 0.00 in 0.03 in 0.54 in (1968)
Month to date precipitation 0.59 0.35  
Year to date precipitation 23.36 20.00  
Sea Level Pressure  
Sea Level Pressure 30.01 in    
Wind  
Wind Speed 3 mph (NNW)    
Max Wind Speed 16 mph    
Max Gust Speed 23 mph    
Visibility 10 miles    
Events      
T = Trace of Precipitation, MM = Missing Value Source: NWS Daily Summary

Daily Weather History Graph

Daily Weather History Graph

Search for Another Location

Airport or City:

Astronomy

Sep. 14, 2019 Rise Set
Actual Time 6:51 AM PDT 7:25 PM PDT
Civil Twilight 6:23 AM PDT 7:54 PM PDT
Nautical Twilight 5:49 AM PDT 8:27 PM PDT
Astronomical Twilight 5:14 AM PDT 9:02 PM PDT
Moon 8:09 PM PDT (9/14) 7:09 AM PDT (9/14)
Length of Visible Light 13h 31m
Length of Day
12h 33m
Full, 100% of the Moon is Illuminated
Sep 14
Full
Sep 21
Last Quarter
Sep 28
New
Oct 5
First Quarter
Oct 13
Full

Hourly Weather History & Observations

Time (PDT) Temp. Heat Index Dew Point Humidity Pressure Visibility Wind Dir Wind Speed Gust Speed Precip Events Conditions
12:53 AM 64.0 °F - 55.9 °F 75% 30.07 in 10.0 mi North 3.5 mph - N/A   Clear
1:53 AM 62.1 °F - 55.9 °F 80% 30.07 in 10.0 mi Calm Calm - N/A   Clear
2:53 AM 61.0 °F - 57.0 °F 87% 30.06 in 10.0 mi Calm Calm - N/A   Clear
3:53 AM 60.1 °F - 55.0 °F 83% 30.06 in 10.0 mi Calm Calm - N/A   Clear
4:53 AM 57.9 °F - 54.0 °F 87% 30.05 in 10.0 mi Calm Calm - N/A   Clear
5:53 AM 57.9 °F - 54.0 °F 87% 30.05 in 10.0 mi Calm Calm - N/A   Clear
6:53 AM 57.0 °F - 54.0 °F 89% 30.06 in 10.0 mi Calm Calm - N/A   Clear
7:21 AM 57.0 °F - 54.0 °F 89% 30.06 in 10.0 mi Calm Calm - N/A   Partly Cloudy
7:37 AM 57.0 °F - 55.0 °F 93% 30.06 in 5.0 mi Calm Calm - N/A   Mostly Cloudy
7:53 AM 57.0 °F - 55.9 °F 96% 30.06 in 5.0 mi SW 3.5 mph - N/A   Overcast
8:21 AM 57.9 °F - 55.9 °F 93% 30.07 in 10.0 mi Calm Calm - N/A   Overcast
8:53 AM 59.0 °F - 55.9 °F 90% 30.06 in 10.0 mi Calm Calm - N/A   Overcast
9:12 AM 60.1 °F - 57.0 °F 90% 30.06 in 10.0 mi Calm Calm - N/A   Overcast
9:53 AM 62.1 °F - 57.0 °F 84% 30.06 in 10.0 mi SW 3.5 mph - N/A   Overcast
10:53 AM 64.9 °F - 57.0 °F 75% 30.04 in 10.0 mi Calm Calm - N/A   Overcast
11:50 AM 68.0 °F - 57.2 °F 68% 30.03 in 10.0 mi Calm Calm - N/A   Overcast
11:53 AM 66.9 °F - 57.9 °F 73% 30.02 in 10.0 mi Variable 3.5 mph - N/A   Overcast
12:11 PM 68.0 °F - 57.0 °F 68% 30.02 in 10.0 mi Calm Calm - N/A   Scattered Clouds
12:53 PM 73.0 °F - 57.0 °F 57% 29.99 in 10.0 mi North 3.5 mph - N/A   Clear
1:53 PM 75.9 °F - 57.0 °F 52% 29.96 in 10.0 mi Variable 4.6 mph - N/A   Clear
2:53 PM 79.0 °F - 57.0 °F 47% 29.94 in 10.0 mi Variable 4.6 mph - N/A   Clear
3:53 PM 81.0 °F 81.1 °F 57.9 °F 45% 29.93 in 10.0 mi North 12.7 mph 19.6 mph N/A   Scattered Clouds
4:53 PM 77.0 °F - 57.9 °F 52% 29.92 in 10.0 mi North 15.0 mph 23.0 mph N/A   Mostly Cloudy
5:53 PM 73.9 °F - 57.0 °F 55% 29.92 in 10.0 mi NW 10.4 mph - N/A   Scattered Clouds
6:53 PM 72.0 °F - 55.0 °F 55% 29.92 in 10.0 mi NW 6.9 mph - N/A   Mostly Cloudy
7:53 PM 70.0 °F - 55.9 °F 61% 29.92 in 10.0 mi NW 3.5 mph - N/A   Clear
9:53 PM 66.0 °F - 55.9 °F 70% 29.92 in 10.0 mi Calm Calm - N/A   Clear
10:53 PM 63.0 °F - 55.0 °F 75% 29.92 in 10.0 mi Calm Calm - N/A   Clear
11:53 PM 64.0 °F - 55.9 °F 75% 29.91 in 10.0 mi Calm Calm - N/A   Overcast